Wind_Speed
22 22 22 22 21 21 21 20 20 20 20 20 20 20 20 20 20 21 21 22 23 24 25 25 25 25 25 25 25 25 25 26 26 26 26 26 25 25 25 24 24 24 24 24 24 24 24 24 23 23 23 23 23 23 23 23 22 22 22 22 22 23 24 24 25 25 26 26 25
22 22 22 21 21 20 20 20 20 20 20 20 20 20 20 20 20 20 21 22 23 24 25 25 25 25 25 25 25 25 25 25 25 26 25 25 25 24 24 24 24 24 24 24 24 23 23 23 22 22 22 22 22 21 21 22 22 22 23 23 23 24 24 25 25 25 24 22 21
22 21 21 20 20 20 19 19 20 20 19 19 19 19 19 19 20 20 21 22 24 25 25 25 25 25 25 25 25 25 25 25 25 25 25 25 24 24 24 24 24 24 23 23 23 22 22 22 21 21 21 20 20 20 20 20 20 20 21 21 22 22 22 23 23 22 20 19 18
21 21 20 20 19 19 19 19 19 19 19 19 19 19 19 19 20 21 22 23 24 25 25 25 25 25 25 25 25 25 25 25 24 24 24 24 24 24 24 24 23 22 22 22 22 22 21 21 20 19 19 18 18 17 17 17 17 17 17 18 19 19 19 19 19 18 18 17 18
21 20 20 19 19 18 18 18 18 18 18 18 18 19 19 20 21 21 22 23 24 25 26 25 25 25 25 26 26 25 25 24 24 24 23 23 23 23 23 23 22 22 21 21 21 21 20 19 18 17 16 15 15 15 15 15 15 16 16 17 18 18 18 17 16 16 17 19 20
20 20 19 18 18 18 18 17 17 17 18 18 19 19 20 21 21 22 22 23 24 25 26 26 25 25 26 26 25 25 24 24 23 23 23 23 23 23 22 22 21 21 21 21 20 19 18 17 16 15 14 13 13 14 14 14 15 16 17 18 19 18 17 15 14 15 17 19 20
19 19 18 17 17 17 16 16 17 17 17 18 19 20 20 21 22 22 23 23 24 25 25 25 25 25 26 26 25 25 24 23 23 22 22 22 22 22 21 21 21 20 20 20 19 18 17 17 15 13 13 13 13 14 15 15 16 16 16 16 16 16 15 14 13 14 16 17 18
18 18 17 16 16 16 16 16 16 17 17 18 19 20 21 22 22 23 23 24 24 24 25 25 25 26 26 25 25 25 24 23 22 21 21 21 21 20 20 20 20 19 18 18 17 17 16 15 13 13 13 13 14 14 15 16 16 15 14 13 13 13 12 13 13 14 15 16 17
17 17 16 16 15 15 15 16 16 17 18 19 20 20 21 22 22 23 23 24 24 25 25 25 26 26 25 25 25 25 24 23 21 21 20 20 19 19 19 19 18 17 16 15 15 14 13 13 13 13 13 13 14 14 13 13 13 12 12 12 12 12 12 12 13 15 16 17 17
16 16 15 15 15 15 15 16 17 18 18 19 20 21 21 22 22 23 23 24 25 25 25 25 25 25 25 25 25 24 23 22 21 20 20 19 19 18 17 16 15 14 14 13 13 12 11 10 11 12 13 13 14 13 11 8 8 8 9 10 12 13 13 12 12 13 15 15 15
16 15 15 14 15 15 16 16 17 18 19 20 20 21 21 22 22 23 23 24 25 25 25 25 25 25 24 24 24 23 22 21 21 20 20 19 18 16 15 14 13 13 14 13 12 11 9 9 9 10 12 14 14 14 11 8 6 5 7 9 11 12 11 10 9 9 10 11 12
16 15 14 15 15 15 16 17 18 19 19 20 20 21 21 22 22 23 23 24 25 25 25 25 24 24 24 23 23 22 21 20 20 20 19 18 17 15 14 14 14 15 15 15 13 12 10 9 9 9 11 13 14 14 12 10 8 7 8 9 11 12 11 10 8 8 8 9 10
15 15 14 15 15 15 16 17 18 19 20 20 21 21 21 22 22 23 23 24 24 24 24 24 24 23 23 22 22 21 20 19 19 18 17 17 16 16 15 15 15 16 17 16 15 13 11 11 10 10 10 12 12 12 11 10 9 9 9 10 11 11 11 10 9 9 10 10 11
15 15 14 15 15 15 16 17 18 19 20 20 21 21 22 22 22 23 23 23 24 24 23 23 23 22 22 21 20 19 19 18 18 17 18 18 18 18 17 17 17 17 18 17 16 14 14 13 12 12 11 11 11 11 11 10 10 10 10 10 10 10 10 10 10 11 11 12 13
15 15 15 15 15 16 16 17 18 19 19 20 20 21 21 22 22 22 23 23 23 23 23 22 22 21 21 20 19 19 19 18 19 19 20 20 20 20 19 18 18 18 18 17 16 16 16 15 15 14 14 13 13 13 12 12 12 12 11 11 11 11 11 11 11 12 13 13 14
15 15 15 15 15 16 16 17 18 19 19 20 20 21 21 21 22 22 22 22 22 22 22 21 21 21 20 20 20 20 19 20 20 22 22 23 22 21 20 20 19 19 18 18 17 17 17 18 17 16 16 15 15 15 15 14 14 14 13 13 13 13 13 13 13 13 14 14 14
15 15 15 15 16 16 17 17 18 19 19 20 20 20 20 21 21 21 21 21 21 21 21 21 21 21 21 21 21 21 21 21 23 24 25 24 23 22 21 20 20 19 19 18 18 18 18 18 18 17 17 17 17 16 16 16 15 15 15 15 15 15 15 15 15 15 15 15 15
15 15 15 16 16 16 17 18 18 19 19 20 20 20 20 20 20 20 20 20 20 20 20 20 21 21 22 22 23 23 23 23 24 25 26 25 23 22 22 21 21 20 20 19 19 19 19 19 18 18 17 17 17 17 17 16 16 16 16 16 17 17 17 17 17 17 16 16 16
16 16 16 16 16 17 17 18 19 19 20 20 20 20 20 20 20 20 19 19 19 19 20 20 21 21 22 23 23 23 23 24 25 25 25 25 24 23 23 22 22 22 21 20 20 20 20 20 19 19 18 18 18 18 17 17 17 17 17 18 18 18 18 18 18 18 18 17 17
16 16 16 16 17 17 18 18 19 20 20 20 20 20 19 19 19 19 19 19 19 19 19 20 20 21 22 23 23 23 23 24 25 25 25 25 24 24 24 24 23 23 22 22 21 21 21 20 20 20 19 19 19 18 18 18 18 18 18 19 19 19 19 19 18 18 18 18 18
16 16 16 16 17 18 18 19 20 20 21 20 20 19 19 19 19 19 19 19 19 19 19 19 20 21 23 23 24 23 24 24 25 25 25 25 25 24 24 24 24 24 23 23 23 22 22 22 21 21 20 20 20 19 19 19 19 19 19 19 19 19 19 18 18 18 18 18 18
16 16 16 17 17 18 19 20 20 21 21 21 20 20 19 19 19 19 19 19 19 19 19 19 20 21 22 23 23 23 24 24 25 25 25 25 25 25 25 25 25 25 24 24 24 24 23 23 23 22 21 21 20 20 20 20 20 20 20 20 20 19 18 18 17 17 17 17 17
15 16 16 17 18 19 20 20 21 21 21 21 20 20 19 19 19 19 20 20 19 19 19 19 20 21 21 22 22 23 24 24 25 25 25 25 25 26 26 26 26 25 25 25 25 25 24 24 23 23 22 22 21 21 20 20 20 20 20 20 19 18 17 16 16 16 16 16 16
16 16 17 18 19 19 20 21 21 21 21 21 21 20 20 19 19 20 20 20 19 19 19 19 20 20 21 21 22 23 24 25 25 25 25 25 26 26 26 26 26 25 25 25 25 25 25 24 24 23 23 22 22 21 21 21 20 20 19 18 17 16 16 15 15 15 14 14 13
16 16 17 18 19 20 21 21 21 21 21 21 20 20 20 19 19 19 19 19 19 18 19 19 20 20 21 21 22 23 24 24 25 25 25 25 26 26 26 25 25 25 25 25 25 25 25 24 24 23 23 22 22 21 21 20 19 18 17 16 15 15 14 14 14 13 12 11 10
16 17 18 19 19 20 21 21 21 21 21 20 20 20 20 19 18 18 18 18 18 19 19 20 20 21 21 22 22 23 23 24 24 24 25 25 25 25 25 25 25 25 24 24 24 24 24 24 23 23 23 22 21 21 20 19 17 16 15 14 14 13 13 12 12 11 10 9 8
17 18 18 19 20 20 21 21 21 21 21 20 20 20 19 19 18 18 18 18 18 19 20 20 21 21 21 22 22 23 23 23 24 24 24 24 24 24 25 25 25 24 23 23 23 23 23 22 22 22 21 20 20 18 17 16 15 14 13 13 12 12 12 11 10 9 8 8 8
18 18 19 20 20 21 21 22 22 21 21 20 20 19 19 19 18 18 18 18 18 19 19 20 20 21 21 22 22 23 23 23 23 23 24 24 24 24 24 24 23 23 22 21 21 20 20 20 20 20 19 18 16 15 14 13 13 12 12 12 11 11 11 10 9 8 8 8 8
19 19 19 20 20 21 22 22 22 21 21 20 20 19 19 19 19 18 18 18 18 18 18 19 19 20 20 21 21 22 22 22 22 22 23 23 23 23 23 22 21 20 19 18 18 17 17 17 17 16 15 14 13 12 12 12 12 11 11 11 10 10 10 9 8 8 7 7 7
19 19 20 20 21 21 22 22 22 22 21 20 20 19 19 19 18 18 17 17 17 17 17 18 18 19 19 20 21 21 21 21 21 21 22 22 21 21 20 19 17 16 15 14 14 14 14 14 14 13 12 12 11 11 11 11 10 10 10 10 9 9 9 8 8 7 7 7 6
20 20 20 21 21 22 22 22 22 22 21 20 19 19 18 18 17 17 16 16 16 17 17 17 17 17 18 18 19 18 18 18 18 18 18 17 17 17 16 15 13 12 11 11 11 11 11 11 11 11 11 10 10 10 10 10 9 9 9 9 8 8 8 8 7 7 7 7 7
21 21 21 21 21 22 22 22 23 22 21 20 19 18 18 17 17 16 16 16 16 16 16 16 15 14 14 15 14 14 13 13 12 12 11 11 11 11 10 9 9 8 8 8 9 10 10 10 10 10 10 9 9 9 9 8 8 8 8 8 8 8 8 7 7 7 7 7 7
22 22 21 21 22 22 22 23 22 22 21 20 19 18 18 17 16 16 16 16 15 14 14 13 12 11 11 10 10 9 8 8 7 7 8 8 7 7 6 6 6 7 7 8 9 9 9 9 9 9 9 8 8 8 8 8 7 7 7 7 7 7 7 7 7 7 7 7 8
23 22 22 22 22 22 23 23 22 21 20 19 18 18 17 17 16 15 15 15 14 12 10 10 9 9 9 8 8 7 7 7 7 7 7 7 7 6 6 6 6 7 8 8 9 9 8 8 8 8 8 8 8 8 8 8 7 7 7 7 7 7 7 7 7 7 8 8 8
24 23 22 22 22 22 22 22 22 21 20 19 18 18 17 17 15 14 14 14 12 10 8 8 8 8 8 8 7 7 7 7 8 8 7 7 7 6 6 7 7 7 8 8 8 8 8 8 8 8 8 8 8 8 8 8 8 8 8 8 8 8 8 8 8 8 8 8 8
24 23 22 22 22 22 22 22 22 21 20 18 17 17 17 16 15 14 14 13 11 9 8 8 8 8 8 7 7 7 8 8 8 8 7 7 7 7 7 7 7 7 7 7 7 8 8 8 8 8 8 8 8 8 8 8 8 8 8 8 8 8 8 8 8 8 8 7 7
23 22 22 22 22 22 22 22 21 20 19 18 17 16 16 15 15 15 14 12 10 10 9 8 8 7 7 8 8 8 8 8 7 8 8 8 7 7 6 6 6 6 7 7 8 8 8 8 8 8 8 8 8 8 8 8 8 8 8 8 9 9 9 8 8 8 7 7 6
23 22 21 21 21 22 22 21 21 20 19 17 16 16 15 15 14 14 13 11 10 10 10 9 8 8 8 9 9 9 9 8 8 8 8 8 7 6 5 5 5 6 7 8 8 8 8 8 8 8 8 8 8 8 8 8 8 8 9 9 9 9 9 8 8 7 7 6 6
22 21 21 21 21 21 22 21 20 19 18 17 16 15 15 14 14 14 13 11 10 10 10 10 9 9 10 11 11 10 10 10 10 10 9 9 7 6 5 4 5 7 8 8 9 9 9 9 8 8 8 8 8 8 8 8 8 9 9 9 9 9 8 8 7 7 6 6 6
21 21 20 20 21 21 21 21 20 19 17 16 15 15 14 14 14 13 12 10 10 11 10 10 10 10 11 11 11 11 11 10 10 10 10 9 8 6 6 6 7 8 9 9 9 9 9 9 9 9 9 9 9 9 9 9 9 9 9 9 8 8 8 7 7 6 6 6 7
21 20 20 20 20 21 21 20 19 18 17 16 15 14 14 14 14 13 12 11 11 11 11 11 10 11 11 12 11 11 11 11 11 11 10 9 8 8 7 8 9 9 10 10 10 10 9 9 9 9 9 9 9 9 9 9 9 8 8 8 8 7 7 6 6 6 6 7 7
Wind_Direction
247 248 249 251 253 255 256 258 259 260 261 262 264 266 269 271 274 275 277 277 277 278 279 280 281 283 284 285 285 286 286 287 287 288 288 287 287 286 285 284 282 281 280 280 279 279 278 278 277 276 275 273 272 270 267 264 261 258 256 256 257 258 259 260 260 261 261 261 262
248 249 250 251 253 254 256 257 258 258 259 261 263 267 270 273 275 276 277 277 278 278 279 281 282 283 284 285 285 286 287 287 287 288 287 287 286 285 284 282 281 281 280 280 280 280 280 279 278 277 275 273 271 268 264 261 258 256 255 254 255 257 258 260 261 262 262 261 260
248 249 250 251 252 253 254 255 257 258 260 262 265 269 272 274 276 277 277 278 278 279 280 281 283 284 285 285 286 287 287 287 287 286 286 285 284 283 281 281 281 281 282 282 282 281 280 279 278 276 274 273 270 266 263 260 258 257 256 257 258 258 260 261 263 263 262 260 258
248 249 250 251 251 252 253 255 258 260 263 266 269 271 273 274 276 277 278 279 279 280 281 283 284 285 285 285 286 286 286 286 285 284 284 282 281 280 279 280 280 281 281 281 280 279 278 278 277 276 276 276 276 274 272 269 266 265 265 266 266 265 264 264 262 260 256 253 250
248 249 249 250 251 252 254 257 260 264 267 270 273 274 276 277 278 279 279 279 280 281 282 284 285 285 285 285 285 285 285 284 283 282 281 279 278 278 278 279 279 279 279 278 278 278 278 278 278 278 278 279 280 280 279 277 276 274 272 270 267 263 259 256 253 251 247 242 238
247 248 249 250 252 254 257 260 264 267 271 274 276 278 279 279 280 280 280 280 280 281 283 284 284 284 284 284 284 283 283 282 280 279 278 276 276 276 277 277 276 276 276 277 277 277 276 276 275 274 273 272 270 270 271 271 269 267 264 260 255 251 247 245 247 248 245 238 234
246 247 249 251 253 256 259 263 266 270 273 276 278 279 280 281 281 281 281 281 281 282 283 284 283 283 283 282 282 281 280 279 277 276 275 274 274 274 274 273 273 274 275 276 276 275 273 272 271 268 265 263 261 260 259 257 256 256 256 256 249 243 240 242 246 249 247 243 241
245 246 248 251 254 258 262 266 269 272 275 277 278 279 281 282 282 282 282 282 283 283 283 283 282 282 281 281 280 279 278 277 275 273 272 272 271 271 270 270 270 271 272 273 274 273 270 267 262 257 254 255 255 254 252 249 245 246 251 258 254 246 239 239 244 248 250 251 253
243 245 248 252 255 260 264 268 271 274 276 278 279 280 281 282 283 283 283 283 283 283 282 282 281 281 280 279 278 277 277 275 272 270 269 268 268 267 266 267 268 268 268 269 270 271 269 263 253 247 246 249 252 253 251 245 238 237 241 250 255 254 249 243 242 244 248 251 255
241 244 248 252 257 262 266 270 273 276 278 279 280 281 282 283 283 284 284 284 283 283 282 282 281 280 278 277 276 275 274 272 269 267 265 265 264 264 264 265 266 265 265 264 265 268 267 261 249 244 244 246 250 252 252 245 233 227 229 237 248 254 255 251 246 244 245 248 250
240 244 249 254 259 265 269 273 276 277 279 280 281 282 283 283 284 284 284 284 284 283 283 281 280 278 276 275 273 272 271 269 266 264 261 260 259 259 259 260 261 262 262 261 260 261 262 259 250 246 246 247 250 254 257 258 253 243 238 240 247 251 253 252 249 247 247 249 250
241 246 251 257 263 268 272 275 278 279 280 281 282 283 284 285 285 285 285 285 285 284 283 281 279 276 274 272 270 269 267 266 263 261 258 255 254 254 253 254 256 258 258 258 256 256 256 254 250 249 249 249 254 259 264 270 274 270 262 258 257 258 261 263 264 263 261 261 260
242 248 255 261 267 271 275 278 281 282 283 284 285 286 286 287 287 287 286 286 286 285 283 280 277 274 271 269 268 266 264 262 260 258 256 254 252 252 251 251 253 254 255 255 255 255 255 254 252 251 251 251 255 260 264 269 271 270 267 266 266 266 268 270 271 271 270 268 266
245 251 258 264 269 274 278 281 283 285 286 287 288 289 289 289 288 288 288 287 286 284 282 279 276 273 270 267 265 262 260 258 257 256 254 253 252 251 251 251 251 251 253 255 256 257 257 256 256 255 254 253 253 255 258 262 263 263 263 263 264 264 263 263 264 264 263 261 259
249 255 261 266 272 276 279 283 285 287 289 290 291 291 291 291 290 289 288 287 285 283 280 276 273 270 267 263 259 256 254 253 253 252 251 250 250 250 250 250 250 251 254 257 259 260 258 257 258 258 257 256 255 255 257 259 261 262 263 264 265 265 265 264 263 262 261 260 259
253 258 264 269 274 278 281 284 287 289 290 291 292 292 292 291 290 289 288 286 284 282 278 274 270 266 262 258 254 251 249 249 249 249 249 248 248 248 249 249 251 253 256 260 261 261 260 259 259 260 260 260 259 260 261 263 264 266 267 269 271 273 274 274 272 270 269 267 266
256 262 267 272 277 280 283 286 289 291 292 292 292 292 292 291 290 289 287 285 283 280 276 272 268 263 259 256 253 249 246 246 247 248 249 249 249 249 249 250 252 255 257 260 262 262 262 261 262 262 262 263 264 264 266 268 270 272 273 275 277 279 280 280 280 278 276 274 272
259 265 270 275 280 284 287 290 292 293 294 294 294 293 292 291 290 289 287 284 281 278 274 270 266 262 259 256 254 251 248 246 247 249 251 252 252 251 251 252 253 255 257 259 261 262 263 263 263 263 264 265 266 267 269 271 273 276 277 279 280 282 282 283 282 281 279 277 275
262 268 273 278 283 287 290 293 295 296 296 295 295 294 293 291 290 288 286 283 279 276 272 268 265 263 260 258 257 255 252 250 250 251 253 254 254 254 253 254 254 255 256 258 260 260 261 262 263 263 264 266 267 269 270 272 274 276 278 280 281 282 282 281 281 280 278 277 275
265 271 277 282 287 290 294 296 297 297 297 297 296 295 293 290 288 286 284 280 278 275 272 268 265 263 261 260 259 257 255 253 253 253 254 255 255 255 255 255 255 255 256 257 258 259 260 261 262 263 264 266 267 269 270 271 273 274 276 278 278 279 278 278 277 276 275 274 273
268 274 281 286 291 295 297 298 299 299 298 297 296 295 292 289 286 284 281 278 277 275 271 267 264 261 260 260 259 258 257 256 255 255 255 255 256 256 256 256 256 256 256 257 257 258 259 259 260 262 263 265 266 267 269 270 271 273 274 275 275 275 274 274 273 272 271 270 269
271 278 285 291 295 297 299 299 300 299 298 298 296 294 291 288 284 282 279 278 277 275 272 268 264 261 260 260 260 260 259 258 257 256 256 256 256 256 256 256 256 256 256 257 257 258 258 259 260 261 262 263 265 266 267 268 269 270 271 271 271 271 270 269 268 268 267 266 265
273 281 287 293 296 298 299 300 300 300 299 298 296 294 290 287 284 281 280 279 278 277 274 271 267 265 263 262 262 261 261 260 259 258 257 257 256 256 256 256 257 257 257 258 258 259 259 259 260 261 261 262 263 264 265 265 266 266 267 267 267 266 265 265 264 264 263 263 262
275 282 288 292 295 297 299 299 300 299 299 297 295 293 290 287 284 283 282 281 280 279 276 273 270 268 266 264 262 261 261 260 260 260 259 259 258 258 258 258 258 258 258 259 259 260 260 261 261 261 261 261 262 262 262 262 262 263 262 262 262 261 261 261 261 261 261 260 258
275 282 287 291 294 296 298 299 299 299 298 296 294 292 290 287 285 284 284 282 280 278 275 272 271 269 267 265 264 262 262 261 261 261 260 260 260 260 260 260 260 260 260 260 260 261 261 261 261 260 260 260 260 260 259 259 258 258 257 256 256 256 257 258 259 259 258 256 251
275 281 285 289 292 295 297 298 299 298 297 295 293 291 289 288 286 284 282 279 276 274 272 270 269 268 268 267 266 265 264 263 263 262 261 261 261 261 261 261 261 260 260 260 260 260 260 260 259 259 258 257 257 256 256 254 253 251 250 250 250 252 253 255 257 257 255 249 241
274 279 284 288 291 294 296 298 298 298 297 295 293 290 289 287 284 282 279 276 274 272 270 269 268 267 267 267 267 266 266 266 265 264 263 263 262 262 262 262 261 261 260 260 259 258 258 257 257 256 255 254 252 251 249 248 246 245 245 246 248 250 251 252 253 254 251 244 237
273 278 282 287 290 294 296 298 299 298 297 295 293 290 288 286 284 282 280 278 276 273 271 269 268 267 267 266 266 266 266 266 266 266 266 265 264 263 263 263 262 262 260 259 257 255 254 253 253 252 250 248 246 243 240 239 240 242 244 246 249 250 251 251 250 249 246 242 236
272 277 281 286 290 294 297 298 299 299 298 296 294 291 288 286 285 283 282 281 279 276 273 270 269 268 267 266 265 265 265 265 265 265 265 265 264 264 263 263 263 261 259 256 253 250 247 246 246 245 243 240 236 234 233 234 237 241 244 247 249 250 250 249 247 243 238 235 230
271 276 280 285 289 293 296 298 299 299 298 296 294 291 289 287 286 285 285 283 281 278 274 272 270 269 267 265 264 264 263 264 264 264 264 264 263 263 262 262 260 258 255 251 246 241 238 236 236 235 232 229 227 227 229 233 237 242 245 247 248 248 247 245 240 234 227 222 217
270 274 279 284 288 292 296 298 298 298 297 296 294 292 290 288 287 286 286 284 281 279 278 276 274 271 269 267 266 266 266 266 266 266 266 265 263 262 260 258 255 251 246 240 233 228 225 225 225 223 222 221 223 226 230 235 239 241 243 243 243 242 240 235 230 224 217 212 208
269 273 277 282 287 291 294 297 298 298 297 296 294 292 290 288 287 287 286 284 281 280 280 279 276 273 272 271 271 270 268 267 267 268 267 265 262 258 254 248 242 236 229 222 217 214 214 214 215 216 217 220 223 228 232 235 236 236 235 233 232 230 228 225 221 216 211 208 206
267 271 275 280 285 289 293 296 297 297 296 295 293 291 289 288 288 287 286 284 282 279 277 275 272 270 269 271 272 271 268 265 264 263 263 261 257 251 242 230 222 217 212 208 207 207 208 209 211 213 216 220 224 227 229 229 227 224 222 220 219 218 218 217 215 213 211 210 209
264 268 272 277 283 288 292 294 295 296 295 294 292 289 288 287 286 284 283 282 280 276 271 268 267 268 270 271 270 266 261 257 254 251 250 247 243 235 225 214 210 207 205 204 204 205 205 206 208 211 214 217 219 220 220 217 214 211 209 208 209 209 210 211 213 214 215 215 214
262 265 270 275 281 286 290 293 294 295 294 292 289 287 286 286 284 281 279 278 275 268 259 258 265 270 272 270 266 259 253 248 245 242 239 236 230 223 217 212 208 206 205 204 204 202 203 204 206 209 211 212 213 211 209 205 202 201 200 201 202 205 207 211 214 217 219 219 220
259 263 267 273 280 285 289 292 293 293 292 290 286 284 283 284 283 280 277 274 266 255 246 247 257 264 263 258 252 248 245 244 243 241 239 234 229 223 218 214 211 209 206 203 201 200 200 202 204 206 207 207 206 203 200 197 197 197 198 200 203 206 209 213 216 220 224 226 228
257 261 266 272 278 284 288 290 291 291 290 287 284 282 281 281 280 279 276 269 257 245 239 240 245 248 246 243 240 237 236 237 239 240 240 239 235 230 225 220 214 210 204 200 197 197 198 200 202 203 203 201 199 197 195 195 196 199 201 203 206 209 212 215 217 221 226 231 234
254 259 265 271 277 282 286 288 289 288 287 284 281 279 278 278 277 277 274 263 248 238 235 234 235 236 237 237 235 232 229 226 228 231 235 237 238 237 232 223 213 205 200 196 195 195 196 197 198 198 198 196 195 195 196 198 200 202 205 208 210 213 215 216 217 220 224 230 236
253 258 264 270 277 281 285 286 286 285 283 281 278 276 275 275 274 274 270 256 240 233 232 231 229 230 232 233 232 230 227 224 224 226 229 231 232 232 227 213 202 198 197 195 194 195 195 195 196 195 195 195 195 197 199 202 204 206 209 211 214 215 216 217 217 218 222 227 233
251 257 263 270 276 280 283 284 283 282 280 277 275 273 271 271 272 272 265 248 234 228 228 228 226 227 230 231 230 229 228 227 226 227 227 228 226 221 213 200 194 193 194 194 194 194 194 195 195 195 195 196 198 200 203 205 208 210 212 214 214 215 216 216 217 217 220 224 228
251 256 263 270 275 279 281 281 280 278 276 274 271 269 268 268 271 269 259 242 231 227 226 225 225 226 228 229 229 228 228 228 230 230 230 228 223 216 206 197 192 191 193 193 194 194 195 195 196 196 196 198 201 203 206 208 209 210 212 214 214 214 213 214 215 217 219 221 225
Height
1528 1529 1529 1530 1530 1530 1531 1531 1532 1532 1532 1532 1532 1532 1532 1532 1533 1533 1532 1532 1532 1532 1532 1532 1532 1532 1531 1531 1531 1531 1531 1530 1530 1530 1529 1529 1529 1528 1528 1527 1527 1527 1527 1527 1526 1526 1526 1526 1526 1526 1525 1525 1526 1526 1526 1526 1526 1526 1527 1527 1527 1527 1527 1527 1527 1528 1528 1528 1528
1527 1527 1528 1528 1529 1529 1529 1530 1530 1530 1531 1531 1531 1531 1531 1531 1531 1531 1531 1531 1530 1530 1530 1530 1530 1530 1530 1529 1529 1529 1529 1528 1528 1528 1527 1527 1527 1526 1526 1526 1525 1525 1525 1525 1524 1524 1524 1524 1524 1524 1524 1524 1524 1524 1524 1524 1525 1525 1525 1525 1525 1526 1526 1526 1526 1526 1526 1527 1527
1525 1526 1526 1527 1527 1527 1528 1528 1528 1529 1529 1529 1529 1530 1530 1530 1530 1530 1529 1529 1528 1528 1528 1528 1528 1528 1528 1527 1527 1527 1527 1527 1526 1526 1525 1525 1525 1524 1524 1523 1523 1523 1523 1523 1523 1522 1522 1522 1522 1522 1522 1522 1522 1522 1522 1523 1523 1523 1523 1523 1524 1524 1524 1524 1524 1524 1524 1524 1525
1523 1524 1525 1525 1526 1526 1526 1527 1527 1527 1527 1528 1528 1528 1528 1528 1528 1528 1528 1527 1527 1527 1526 1527 1527 1527 1526 1526 1525 1525 1525 1524 1524 1524 1523 1523 1523 1522 1522 1522 1522 1522 1522 1521 1521 1521 1521 1521 1521 1520 1520 1520 1520 1520 1521 1521 1521 1522 1522 1522 1522 1522 1522 1522 1523 1523 1523 1523 1523
1522 1523 1523 1524 1524 1525 1525 1525 1526 1526 1526 1526 1526 1527 1527 1527 1526 1526 1526 1526 1525 1525 1525 1525 1525 1524 1524 1523 1523 1523 1523 1522 1522 1522 1522 1521 1521 1520 1520 1520 1520 1520 1520 1520 1519 1519 1519 1519 1519 1519 1519 1520 1520 1520 1520 1520 1520 1520 1520 1521 1521 1521 1521 1521 1522 1522 1522 1522 1522
1521 1522 1522 1522 1523 1523 1524 1524 1524 1524 1524 1524 1524 1524 1524 1525 1525 1525 1524 1524 1524 1523 1523 1523 1522 1522 1522 1522 1521 1521 1521 1521 1520 1520 1520 1519 1519 1519 1518 1518 1518 1518 1518 1518 1518 1518 1518 1518 1518 1518 1518 1519 1519 1519 1519 1519 1519 1520 1520 1520 1519 1519 1520 1520 1520 1520 1521 1521 1521
1520 1520 1521 1521 1522 1522 1522 1522 1522 1523 1523 1523 1523 1523 1522 1523 1523 1523 1522 1522 1522 1522 1521 1521 1521 1520 1520 1519 1519 1519 1519 1519 1518 1518 1518 1517 1517 1517 1517 1517 1517 1517 1517 1517 1517 1517 1517 1517 1517 1517 1517 1518 1518 1518 1518 1518 1518 1518 1518 1518 1518 1518 1518 1519 1519 1519 1520 1520 1520
1518 1519 1519 1520 1520 1521 1521 1521 1521 1521 1521 1521 1521 1521 1521 1521 1521 1521 1521 1520 1520 1520 1519 1519 1519 1518 1518 1517 1517 1517 1517 1517 1517 1517 1516 1516 1516 1516 1516 1516 1516 1516 1516 1516 1515 1515 1515 1515 1516 1516 1516 1517 1517 1517 1517 1517 1517 1517 1517 1517 1517 1517 1517 1518 1518 1519 1519 1519 1520
1517 1517 1518 1518 1519 1519 1519 1519 1519 1519 1519 1519 1519 1519 1519 1519 1519 1519 1519 1518 1518 1518 1517 1517 1517 1516 1516 1516 1515 1515 1515 1515 1515 1515 1515 1514 1514 1514 1514 1514 1514 1515 1515 1514 1514 1514 1514 1514 1514 1514 1515 1515 1515 1515 1515 1515 1515 1515 1515 1516 1516 1516 1517 1517 1517 1517 1518 1518 1518
1516 1516 1517 1517 1517 1517 1517 1517 1517 1517 1517 1517 1517 1517 1517 1517 1517 1517 1517 1516 1516 1516 1516 1515 1515 1514 1514 1514 1513 1513 1513 1513 1513 1513 1513 1513 1513 1513 1513 1513 1513 1513 1513 1513 1513 1513 1513 1513 1513 1513 1514 1514 1514 1514 1514 1513 1513 1514 1514 1514 1515 1515 1516 1516 1516 1516 1516 1517 1517
1514 1515 1515 1515 1516 1516 1516 1516 1516 1516 1516 1516 1516 1516 1516 1516 1515 1515 1515 1514 1514 1514 1513 1513 1513 1512 1512 1512 1512 1512 1511 1512 1512 1512 1512 1512 1512 1512 1512 1512 1512 1512 1512 1512 1512 1512 1512 1512 1512 1512 1512 1513 1513 1513 1513 1512 1512 1512 1512 1513 1514 1514 1514 1514 1514 1514 1515 1515 1516
1513 1513 1514 1514 1514 1514 1514 1514 1514 1514 1514 1514 1514 1514 1514 1514 1513 1513 1512 1512 1512 1512 1511 1511 1511 1510 1510 1510 1510 1510 1510 1510 1510 1510 1510 1510 1510 1510 1511 1511 1511 1511 1511 1511 1511 1511 1511 1511 1511 1511 1512 1512 1512 1512 1512 1512 1511 1511 1512 1512 1513 1513 1513 1513 1513 1513 1513 1514 1514
1512 1512 1512 1512 1512 1512 1512 1512 1512 1512 1512 1512 1512 1512 1512 1512 1512 1511 1511 1510 1510 1510 1509 1509 1509 1508 1508 1508 1508 1508 1508 1508 1508 1508 1508 1508 1508 1509 1509 1509 1510 1510 1510 1509 1510 1510 1510 1510 1510 1510 1511 1511 1511 1511 1511 1511 1511 1511 1511 1511 1512 1512 1512 1512 1512 1512 1512 1513 1513
1510 1510 1511 1511 1511 1511 1511 1511 1511 1511 1510 1510 1510 1510 1510 1510 1509 1509 1509 1508 1508 1507 1507 1507 1507 1506 1506 1506 1507 1507 1507 1507 1507 1507 1507 1507 1507 1507 1507 1508 1508 1508 1508 1508 1508 1509 1509 1509 1509 1509 1510 1510 1510 1510 1510 1510 1510 1510 1510 1510 1511 1511 1511 1511 1511 1512 1512 1512 1512
1508 1509 1509 1509 1509 1509 1509 1509 1509 1509 1509 1509 1509 1508 1508 1508 1507 1507 1507 1506 1506 1506 1505 1505 1505 1505 1505 1505 1505 1505 1505 1505 1505 1505 1505 1505 1505 1505 1506 1507 1507 1507 1507 1507 1507 1507 1507 1508 1508 1508 1508 1508 1508 1508 1509 1509 1509 1509 1509 1509 1509 1509 1509 1510 1510 1510 1511 1511 1511
1507 1507 1507 1508 1508 1508 1508 1508 1508 1507 1507 1507 1507 1507 1507 1506 1506 1505 1505 1504 1504 1504 1503 1503 1503 1503 1503 1503 1503 1503 1504 1504 1503 1503 1502 1502 1503 1504 1505 1505 1506 1506 1506 1506 1506 1506 1506 1507 1507 1507 1507 1507 1507 1507 1507 1507 1507 1507 1507 1507 1508 1508 1508 1508 1508 1509 1509 1509 1509
1505 1506 1506 1506 1506 1506 1506 1506 1506 1506 1506 1505 1505 1505 1505 1504 1504 1503 1503 1502 1502 1502 1502 1501 1501 1501 1501 1501 1502 1502 1502 1502 1501 1501 1500 1501 1502 1503 1503 1504 1504 1504 1504 1504 1504 1505 1505 1505 1505 1505 1505 1505 1505 1505 1505 1506 1506 1506 1506 1506 1506 1506 1506 1507 1507 1507 1507 1507 1507
1504 1504 1504 1504 1505 1505 1504 1504 1504 1504 1504 1503 1503 1503 1503 1502 1502 1501 1501 1501 1500 1500 1500 1499 1499 1499 1499 1499 1499 1500 1500 1500 1499 1499 1499 1500 1501 1502 1502 1502 1503 1503 1503 1503 1503 1503 1503 1503 1503 1503 1503 1503 1503 1504 1504 1504 1504 1504 1504 1504 1504 1504 1505 1505 1505 1505 1505 1506 1506
1502 1502 1503 1503 1503 1503 1503 1502 1502 1502 1502 1502 1501 1501 1501 1500 1500 1499 1499 1499 1498 1498 1498 1498 1497 1497 1497 1497 1497 1498 1498 1498 1498 1498 1498 1499 1499 1500 1500 1501 1501 1501 1502 1502 1502 1502 1502 1502 1502 1502 1502 1502 1502 1502 1502 1502 1502 1502 1502 1503 1503 1503 1503 1503 1503 1503 1504 1504 1504
1501 1501 1501 1501 1501 1501 1501 1501 1501 1500 1500 1500 1500 1499 1499 1498 1498 1497 1497 1497 1497 1497 1496 1496 1496 1496 1496 1495 1496 1496 1496 1497 1496 1496 1497 1497 1498 1498 1498 1499 1499 1499 1500 1500 1500 1500 1500 1500 1500 1500 1501 1501 1501 1501 1501 1501 1501 1501 1501 1501 1501 1501 1502 1502 1502 1502 1502 1502 1502
1499 1499 1499 1499 1499 1499 1499 1499 1499 1499 1498 1498 1498 1497 1497 1497 1496 1496 1496 1495 1495 1495 1495 1495 1495 1494 1494 1494 1494 1494 1494 1494 1494 1495 1495 1496 1496 1497 1497 1497 1497 1497 1498 1498 1498 1498 1498 1498 1499 1499 1499 1499 1499 1499 1499 1499 1500 1500 1500 1500 1500 1500 1500 1500 1501 1501 1501 1501 1501
1497 1497 1497 1498 1498 1498 1497 1497 1497 1497 1497 1496 1496 1496 1496 1495 1495 1494 1494 1493 1493 1493 1493 1493 1493 1493 1492 1492 1492 1492 1492 1492 1493 1493 1493 1494 1494 1494 1495 1495 1495 1496 1496 1496 1496 1496 1497 1497 1497 1497 1497 1497 1498 1498 1498 1498 1498 1498 1498 1498 1498 1498 1499 1499 1499 1499 1499 1499 1499
1496 1496 1496 1496 1496 1496 1496 1496 1496 1496 1495 1495 1494 1494 1494 1493 1493 1492 1492 1492 1492 1492 1492 1492 1491 1491 1491 1491 1491 1491 1491 1491 1491 1491 1492 1492 1492 1492 1492 1493 1493 1494 1494 1494 1494 1494 1495 1495 1495 1496 1496 1496 1496 1496 1496 1496 1497 1497 1497 1497 1497 1497 1497 1497 1497 1497 1497 1497 1497
1495 1495 1495 1495 1495 1495 1495 1495 1495 1494 1494 1493 1493 1492 1492 1492 1491 1491 1491 1490 1490 1490 1490 1490 1490 1489 1490 1490 1490 1489 1489 1489 1489 1489 1490 1490 1490 1490 1491 1491 1492 1492 1492 1492 1492 1493 1493 1493 1493 1494 1494 1494 1494 1494 1495 1495 1495 1495 1495 1495 1495 1495 1496 1496 1496 1496 1496 1496 1497
1493 1493 1494 1494 1494 1494 1493 1493 1493 1493 1492 1492 1491 1491 1490 1490 1490 1489 1489 1489 1489 1488 1488 1488 1488 1488 1488 1488 1488 1487 1487 1487 1487 1487 1488 1488 1488 1488 1489 1489 1489 1490 1490 1491 1491 1491 1491 1491 1491 1492 1492 1492 1492 1493 1493 1493 1493 1493 1494 1494 1494 1494 1494 1494 1495 1495 1495 1495 1495
1492 1492 1492 1492 1492 1492 1492 1492 1492 1491 1491 1490 1490 1489 1489 1488 1488 1488 1488 1487 1487 1487 1487 1487 1486 1486 1486 1486 1486 1486 1486 1486 1486 1486 1486 1486 1486 1487 1487 1487 1487 1488 1488 1489 1489 1489 1489 1489 1489 1490 1490 1490 1491 1491 1491 1492 1492 1492 1492 1492 1492 1493 1493 1493 1494 1494 1494 1494 1494
1491 1491 1491 1491 1491 1491 1491 1490 1490 1490 1489 1489 1488 1487 1487 1487 1487 1486 1486 1486 1486 1485 1485 1485 1485 1484 1484 1484 1484 1484 1484 1484 1484 1484 1484 1484 1484 1485 1485 1485 1485 1486 1486 1487 1487 1487 1487 1487 1487 1487 1488 1488 1489 1489 1490 1490 1490 1491 1491 1491 1492 1492 1492 1492 1493 1493 1493 1493 1493
1489 1489 1489 1489 1489 1489 1489 1489 1488 1488 1487 1487 1487 1486 1486 1485 1485 1484 1484 1484 1484 1483 1483 1483 1483 1483 1482 1482 1482 1482 1482 1482 1482 1482 1482 1482 1482 1482 1482 1483 1483 1484 1484 1484 1485 1485 1485 1485 1485 1486 1486 1487 1487 1488 1488 1489 1489 1490 1490 1490 1491 1491 1491 1492 1492 1492 1492 1492 1493
1488 1488 1488 1488 1488 1488 1487 1487 1487 1486 1486 1485 1485 1484 1484 1483 1483 1483 1482 1482 1482 1482 1482 1481 1481 1481 1481 1481 1481 1480 1480 1480 1480 1480 1480 1480 1480 1481 1481 1481 1481 1482 1482 1482 1482 1483 1483 1483 1484 1484 1485 1486 1486 1487 1487 1488 1488 1489 1489 1489 1490 1490 1490 1491 1491 1492 1492 1492 1492
1486 1487 1487 1487 1486 1486 1486 1485 1485 1485 1484 1484 1483 1483 1482 1482 1481 1481 1481 1480 1480 1480 1480 1480 1479 1479 1479 1479 1479 1479 1479 1479 1478 1478 1478 1479 1479 1479 1479 1479 1480 1480 1480 1481 1481 1482 1482 1482 1483 1483 1484 1485 1485 1486 1486 1487 1487 1488 1488 1488 1489 1489 1490 1490 1491 1491 1491 1491 1492
1485 1485 1485 1485 1485 1484 1484 1484 1483 1483 1483 1482 1482 1481 1480 1480 1479 1479 1479 1479 1479 1478 1478 1478 1478 1478 1477 1477 1477 1477 1477 1477 1477 1477 1477 1477 1477 1477 1478 1478 1478 1479 1479 1480 1480 1481 1481 1482 1482 1482 1483 1484 1484 1485 1486 1486 1487 1487 1487 1488 1488 1488 1489 1489 1490 1490 1491 1491 1491
1483 1483 1483 1483 1483 1483 1483 1482 1482 1482 1481 1481 1480 1479 1479 1478 1478 1478 1478 1477 1477 1477 1477 1477 1477 1476 1476 1476 1476 1476 1476 1476 1476 1476 1476 1476 1476 1477 1477 1477 1477 1478 1478 1479 1479 1480 1480 1481 1482 1482 1482 1483 1484 1484 1485 1486 1486 1487 1487 1487 1487 1488 1488 1489 1489 1490 1490 1490 1491
1482 1482 1482 1482 1482 1481 1481 1481 1480 1480 1479 1479 1478 1478 1477 1477 1477 1477 1476 1476 1476 1476 1476 1476 1475 1475 1475 1475 1475 1475 1475 1475 1475 1475 1475 1476 1476 1476 1476 1477 1477 1477 1478 1478 1479 1479 1480 1481 1481 1482 1482 1483 1483 1484 1485 1485 1486 1486 1486 1486 1487 1487 1488 1488 1489 1489 1489 1490 1490
1480 1480 1480 1480 1480 1480 1479 1479 1479 1478 1478 1477 1477 1477 1476 1476 1475 1475 1475 1475 1475 1475 1475 1475 1474 1474 1474 1474 1475 1475 1475 1475 1475 1475 1475 1475 1475 1476 1476 1476 1477 1477 1478 1478 1479 1479 1480 1480 1481 1481 1482 1482 1483 1483 1484 1484 1485 1485 1486 1486 1486 1487 1487 1488 1488 1489 1489 1489 1490
1478 1478 1479 1478 1478 1478 1478 1477 1477 1477 1477 1476 1476 1475 1475 1474 1474 1474 1474 1474 1474 1474 1474 1474 1474 1474 1474 1474 1474 1474 1474 1475 1475 1475 1475 1475 1475 1475 1476 1476 1477 1477 1477 1478 1478 1479 1479 1480 1480 1481 1481 1482 1482 1483 1483 1484 1484 1485 1485 1486 1486 1487 1487 1487 1488 1488 1488 1489 1489
1477 1477 1477 1477 1477 1477 1476 1476 1476 1475 1475 1475 1474 1474 1473 1473 1473 1473 1473 1473 1473 1473 1473 1473 1473 1473 1473 1474 1474 1474 1474 1474 1474 1475 1475 1475 1475 1475 1475 1476 1476 1477 1477 1477 1478 1478 1479 1479 1480 1481 1481 1482 1482 1482 1483 1483 1484 1484 1485 1485 1486 1486 1487 1487 1487 1487 1488 1488 1488
1475 1475 1475 1475 1475 1475 1475 1474 1474 1474 1473 1473 1473 1472 1472 1472 1472 1472 1472 1472 1472 1472 1472 1472 1472 1473 1473 1473 1473 1474 1474 1474 1474 1474 1475 1475 1475 1475 1475 1476 1476 1477 1477 1477 1478 1478 1479 1479 1480 1480 1481 1481 1482 1482 1483 1483 1483 1484 1485 1485 1485 1486 1486 1487 1487 1487 1487 1487 1487
1473 1473 1473 1473 1473 1473 1473 1473 1472 1472 1472 1472 1471 1471 1471 1471 1471 1471 1471 1471 1471 1471 1471 1471 1472 1472 1472 1473 1473 1473 1473 1474 1474 1474 1474 1474 1474 1475 1475 1475 1476 1476 1477 1477 1477 1478 1478 1479 1479 1480 1480 1481 1482 1482 1482 1483 1483 1484 1484 1485 1485 1486 1486 1486 1486 1487 1487 1487 1487
1471 1472 1472 1472 1472 1472 1471 1471 1471 1471 1471 1470 1470 1470 1470 1469 1469 1469 1470 1470 1470 1470 1470 1471 1471 1472 1472 1472 1472 1472 1472 1473 1473 1473 1473 1474 1474 1474 1475 1475 1476 1476 1476 1477 1477 1477 1478 1478 1479 1479 1480 1481 1481 1482 1482 1482 1483 1484 1484 1484 1485 1485 1485 1485 1486 1486 1486 1486 1486
1470 1470 1470 1470 1470 1470 1470 1469 1469 1469 1469 1469 1469 1468 1468 1468 1468 1468 1468 1469 1469 1469 1469 1470 1470 1471 1471 1471 1471 1472 1472 1472 1472 1473 1473 1473 1473 1474 1474 1475 1475 1476 1476 1476 1477 1477 1478 1478 1479 1479 1480 1480 1481 1481 1482 1482 1483 1483 1483 1484 1484 1484 1484 1485 1485 1485 1485 1486 1486
1468 1468 1468 1468 1468 1468 1468 1468 1468 1467 1467 1467 1467 1467 1467 1467 1467 1467 1467 1467 1468 1468 1468 1469 1470 1470 1470 1470 1470 1471 1471 1471 1472 1472 1472 1472 1473 1473 1474 1474 1475 1475 1476 1476 1477 1477 1477 1478 1478 1479 1479 1480 1480 1481 1481 1482 1482 1482 1483 1483 1483 1483 1484 1484 1484 1484 1485 1485 1485